Year,Month,Day,Hour,Minute,Value (Times are PST for temperature in C)
2013,07,27,00,00,16.30
2013,07,27,00,01,16.30
2013,07,27,00,02,16.30
2013,07,27,00,03,16.30
2013,07,27,00,04,16.30
2013,07,27,00,05,16.30
2013,07,27,00,06,16.30
2013,07,27,00,07,16.30
2013,07,27,00,08,16.20
2013,07,27,00,09,16.20
2013,07,27,00,10,16.20
2013,07,27,00,11,16.20
2013,07,27,00,12,16.20
2013,07,27,00,13,16.20
2013,07,27,00,14,16.20
2013,07,27,00,15,16.20
2013,07,27,00,16,16.20
2013,07,27,00,17,16.20
2013,07,27,00,18,16.10
2013,07,27,00,19,16.20
2013,07,27,00,20,16.10
2013,07,27,00,21,16.10
2013,07,27,00,22,16.10
2013,07,27,00,23,16.10
2013,07,27,00,24,16.10
2013,07,27,00,25,16.10
2013,07,27,00,26,16.10
2013,07,27,00,27,16.00
2013,07,27,00,28,16.00
2013,07,27,00,29,16.00
2013,07,27,00,30,15.90
2013,07,27,00,31,15.90
2013,07,27,00,32,15.90
2013,07,27,00,33,15.90
2013,07,27,00,34,15.90
2013,07,27,00,35,15.90
2013,07,27,00,36,15.80
2013,07,27,00,37,15.80
2013,07,27,00,38,15.80
2013,07,27,00,39,15.80
2013,07,27,00,40,15.80
2013,07,27,00,41,15.80
2013,07,27,00,42,15.80
2013,07,27,00,43,15.80
2013,07,27,00,44,15.80
2013,07,27,00,45,15.80
2013,07,27,00,46,15.70
2013,07,27,00,47,15.70
2013,07,27,00,48,15.70
2013,07,27,00,49,15.70
2013,07,27,00,50,15.70
2013,07,27,00,51,15.70
2013,07,27,00,52,15.60
2013,07,27,00,53,15.60
2013,07,27,00,54,15.60
2013,07,27,00,55,15.60
2013,07,27,00,56,15.60
2013,07,27,00,57,15.60
2013,07,27,00,58,15.60
2013,07,27,00,59,15.60
2013,07,27,01,00,15.60
2013,07,27,01,01,15.60
2013,07,27,01,02,15.60
2013,07,27,01,03,15.60
2013,07,27,01,04,15.60
2013,07,27,01,05,15.60
2013,07,27,01,06,15.60
2013,07,27,01,07,15.60
2013,07,27,01,08,15.60
2013,07,27,01,09,15.60
2013,07,27,01,10,15.60
2013,07,27,01,11,15.60
2013,07,27,01,12,15.60
2013,07,27,01,13,15.50
2013,07,27,01,14,15.50
2013,07,27,01,15,15.50
2013,07,27,01,16,15.50
2013,07,27,01,17,15.50
2013,07,27,01,18,15.40
2013,07,27,01,19,15.40
2013,07,27,01,20,15.40
2013,07,27,01,21,15.40
2013,07,27,01,22,15.40
2013,07,27,01,23,15.40
2013,07,27,01,24,15.40
2013,07,27,01,25,15.40
2013,07,27,01,26,15.40
2013,07,27,01,27,15.40
2013,07,27,01,28,15.40
2013,07,27,01,29,15.30
2013,07,27,01,30,15.30
2013,07,27,01,31,15.30
2013,07,27,01,32,15.30
2013,07,27,01,33,15.30
2013,07,27,01,34,15.30
2013,07,27,01,35,15.30
2013,07,27,01,36,15.30
2013,07,27,01,37,15.30
2013,07,27,01,38,15.30
2013,07,27,01,39,15.30
2013,07,27,01,40,15.30
2013,07,27,01,41,15.30
2013,07,27,01,42,15.30
2013,07,27,01,43,15.30
2013,07,27,01,44,15.30
2013,07,27,01,45,15.30
2013,07,27,01,46,15.20
2013,07,27,01,47,15.20
2013,07,27,01,48,15.20
2013,07,27,01,49,15.20
2013,07,27,01,50,15.20
2013,07,27,01,51,15.20
2013,07,27,01,52,15.20
2013,07,27,01,53,15.20
2013,07,27,01,54,15.20
2013,07,27,01,55,15.20
2013,07,27,01,56,15.20
2013,07,27,01,57,15.20
2013,07,27,01,58,15.20
2013,07,27,01,59,15.20
2013,07,27,02,00,15.20
2013,07,27,02,01,15.20
2013,07,27,02,02,15.20
2013,07,27,02,03,15.20
2013,07,27,02,04,15.20
2013,07,27,02,05,15.20
2013,07,27,02,06,15.20
2013,07,27,02,07,15.20
2013,07,27,02,08,15.20
2013,07,27,02,09,15.20
2013,07,27,02,10,15.20
2013,07,27,02,11,15.20
2013,07,27,02,12,15.20
2013,07,27,02,13,15.20
2013,07,27,02,14,15.10
2013,07,27,02,15,15.10
2013,07,27,02,16,15.10
2013,07,27,02,17,15.20
2013,07,27,02,18,15.20
2013,07,27,02,19,15.20
2013,07,27,02,20,15.10
2013,07,27,02,21,15.10
2013,07,27,02,22,15.10
2013,07,27,02,23,15.10
2013,07,27,02,24,15.10
2013,07,27,02,25,15.10
2013,07,27,02,26,15.10
2013,07,27,02,27,15.10
2013,07,27,02,28,15.10
2013,07,27,02,29,15.10
2013,07,27,02,30,15.10
2013,07,27,02,31,15.10
2013,07,27,02,32,15.00
2013,07,27,02,33,15.00
2013,07,27,02,34,15.00
2013,07,27,02,35,15.00
2013,07,27,02,36,15.00
2013,07,27,02,37,15.00
2013,07,27,02,38,15.00
2013,07,27,02,39,15.00
2013,07,27,02,40,14.90
2013,07,27,02,41,14.90
2013,07,27,02,42,14.90
2013,07,27,02,43,14.90
2013,07,27,02,44,14.90
2013,07,27,02,45,14.90
2013,07,27,02,46,14.90
2013,07,27,02,47,14.90
2013,07,27,02,48,14.90
2013,07,27,02,49,14.80
2013,07,27,02,50,14.80
2013,07,27,02,51,14.80
2013,07,27,02,52,14.80
2013,07,27,02,53,14.80
2013,07,27,02,54,14.80
2013,07,27,02,55,14.80
2013,07,27,02,56,14.80
2013,07,27,02,57,14.80
2013,07,27,02,58,14.80
2013,07,27,02,59,14.80
2013,07,27,03,00,14.80
2013,07,27,03,01,14.80
2013,07,27,03,02,14.70
2013,07,27,03,03,14.70
2013,07,27,03,04,14.70
2013,07,27,03,05,14.70
2013,07,27,03,06,14.70
2013,07,27,03,07,14.70
2013,07,27,03,08,14.60
2013,07,27,03,09,14.60
2013,07,27,03,10,14.60
2013,07,27,03,11,14.60
2013,07,27,03,12,14.50
2013,07,27,03,13,14.50
2013,07,27,03,14,14.50
2013,07,27,03,15,14.40
2013,07,27,03,16,14.40
2013,07,27,03,17,14.40
2013,07,27,03,18,14.30
2013,07,27,03,19,14.30
2013,07,27,03,20,14.30
2013,07,27,03,21,14.30
2013,07,27,03,22,14.20
2013,07,27,03,23,14.20
2013,07,27,03,24,14.10
2013,07,27,03,25,14.10
2013,07,27,03,26,14.10
2013,07,27,03,27,14.00
2013,07,27,03,28,14.00
2013,07,27,03,29,13.90
2013,07,27,03,30,13.90
2013,07,27,03,31,13.90
2013,07,27,03,32,13.90
2013,07,27,03,33,13.90
2013,07,27,03,34,13.90
2013,07,27,03,35,13.80
2013,07,27,03,36,13.80
2013,07,27,03,37,13.90
2013,07,27,03,38,13.80
2013,07,27,03,39,13.80
2013,07,27,03,40,13.80
2013,07,27,03,41,13.80
2013,07,27,03,42,13.80
2013,07,27,03,43,13.70
2013,07,27,03,44,13.70
2013,07,27,03,45,13.60
2013,07,27,03,46,13.60
2013,07,27,03,47,13.60
2013,07,27,03,48,13.50
2013,07,27,03,49,13.50
2013,07,27,03,50,13.50
2013,07,27,03,51,13.40
2013,07,27,03,52,13.40
2013,07,27,03,53,13.40
2013,07,27,03,54,13.40
2013,07,27,03,55,13.40
2013,07,27,03,56,13.40
2013,07,27,03,57,13.40
2013,07,27,03,58,13.40
2013,07,27,03,59,13.40
2013,07,27,04,00,13.40
2013,07,27,04,01,13.40
2013,07,27,04,02,13.40
2013,07,27,04,03,13.40
2013,07,27,04,04,13.30
2013,07,27,04,05,13.30
2013,07,27,04,06,13.30
2013,07,27,04,07,13.30
2013,07,27,04,08,13.30
2013,07,27,04,09,13.20
2013,07,27,04,10,13.20
2013,07,27,04,11,13.10
2013,07,27,04,12,13.10
2013,07,27,04,13,13.00
2013,07,27,04,14,13.00
2013,07,27,04,15,12.90
2013,07,27,04,16,12.90
2013,07,27,04,17,12.80
2013,07,27,04,18,12.80
2013,07,27,04,19,12.80
2013,07,27,04,20,12.70
2013,07,27,04,21,12.60
2013,07,27,04,22,12.60
2013,07,27,04,23,12.50
2013,07,27,04,24,12.40
2013,07,27,04,25,12.40
2013,07,27,04,26,12.30
2013,07,27,04,27,12.20
2013,07,27,04,28,12.20
2013,07,27,04,29,12.10
2013,07,27,04,30,12.00
2013,07,27,04,31,11.90
2013,07,27,04,32,11.90
2013,07,27,04,33,11.80
2013,07,27,04,34,11.80
2013,07,27,04,35,11.80
2013,07,27,04,36,11.70
2013,07,27,04,37,11.70
2013,07,27,04,38,11.70
2013,07,27,04,39,11.60
2013,07,27,04,40,11.60
2013,07,27,04,41,11.60
2013,07,27,04,42,11.50
2013,07,27,04,43,11.50
2013,07,27,04,44,11.50
2013,07,27,04,45,11.40
2013,07,27,04,46,11.40
2013,07,27,04,47,11.40
2013,07,27,04,48,11.40
2013,07,27,04,49,11.30
2013,07,27,04,50,11.30
2013,07,27,04,51,11.30
2013,07,27,04,52,11.30
2013,07,27,04,53,11.30
2013,07,27,04,54,11.30
2013,07,27,04,55,11.20
2013,07,27,04,56,11.20
2013,07,27,04,57,11.20
2013,07,27,04,58,11.20
2013,07,27,04,59,11.10
2013,07,27,05,00,11.10
2013,07,27,05,01,11.10
2013,07,27,05,02,11.10
2013,07,27,05,03,11.10
2013,07,27,05,04,11.10
2013,07,27,05,05,11.10
2013,07,27,05,06,11.00
2013,07,27,05,07,11.00
2013,07,27,05,08,11.00
2013,07,27,05,09,11.00
2013,07,27,05,10,11.00
2013,07,27,05,11,11.00
2013,07,27,05,12,11.00
2013,07,27,05,13,11.00
2013,07,27,05,14,11.00
2013,07,27,05,15,11.00
2013,07,27,05,16,11.00
2013,07,27,05,17,10.90
2013,07,27,05,18,10.90
2013,07,27,05,19,10.90
2013,07,27,05,20,10.90
2013,07,27,05,21,10.90
2013,07,27,05,22,10.90
2013,07,27,05,23,10.90
2013,07,27,05,24,10.90
2013,07,27,05,25,10.80
2013,07,27,05,26,10.80
2013,07,27,05,27,10.80
2013,07,27,05,28,10.80
2013,07,27,05,29,10.80
2013,07,27,05,30,10.80
2013,07,27,05,31,10.80
2013,07,27,05,32,10.80
2013,07,27,05,33,10.70
2013,07,27,05,34,10.70
2013,07,27,05,35,10.70
2013,07,27,05,36,10.70
2013,07,27,05,37,10.70
2013,07,27,05,38,10.70
2013,07,27,05,39,10.60
2013,07,27,05,40,10.60
2013,07,27,05,41,10.60
2013,07,27,05,42,10.60
2013,07,27,05,43,10.60
2013,07,27,05,44,10.60
2013,07,27,05,45,10.60
2013,07,27,05,46,10.60
2013,07,27,05,47,10.50
2013,07,27,05,48,10.50
2013,07,27,05,49,10.50
2013,07,27,05,50,10.50
2013,07,27,05,51,10.40
2013,07,27,05,52,10.40
2013,07,27,05,53,10.40
2013,07,27,05,54,10.40
2013,07,27,05,55,10.40
2013,07,27,05,56,10.30
2013,07,27,05,57,10.30
2013,07,27,05,58,10.30
2013,07,27,05,59,10.30
2013,07,27,06,00,10.30
2013,07,27,06,01,10.20
2013,07,27,06,02,10.20
2013,07,27,06,03,10.20
2013,07,27,06,04,10.20
2013,07,27,06,05,10.20
2013,07,27,06,06,10.20
2013,07,27,06,07,10.20
2013,07,27,06,08,10.20
2013,07,27,06,09,10.20
2013,07,27,06,10,10.20
2013,07,27,06,11,10.20
2013,07,27,06,12,10.20
2013,07,27,06,13,10.20
2013,07,27,06,14,10.20
2013,07,27,06,15,10.10
2013,07,27,06,16,10.10
2013,07,27,06,17,10.10
2013,07,27,06,18,10.10
2013,07,27,06,19,10.10
2013,07,27,06,20,10.10
2013,07,27,06,21,10.10
2013,07,27,06,22,10.10
2013,07,27,06,23,10.00
2013,07,27,06,24,10.00
2013,07,27,06,25,10.00
2013,07,27,06,26,10.10
2013,07,27,06,27,10.10
2013,07,27,06,28,10.10
2013,07,27,06,29,10.10
2013,07,27,06,30,10.10
2013,07,27,06,31,10.10
2013,07,27,06,32,10.10
2013,07,27,06,33,10.10
2013,07,27,06,34,10.10
2013,07,27,06,35,10.10
2013,07,27,06,36,10.10
2013,07,27,06,37,10.10
2013,07,27,06,38,10.00
2013,07,27,06,39,10.00
2013,07,27,06,40,10.00
2013,07,27,06,41,10.00
2013,07,27,06,42,10.00
2013,07,27,06,43,10.00
2013,07,27,06,44,10.00
2013,07,27,06,45,9.90
2013,07,27,06,46,9.90
2013,07,27,06,47,9.90
2013,07,27,06,48,9.90
2013,07,27,06,49,9.90
2013,07,27,06,50,9.90
2013,07,27,06,51,9.90
2013,07,27,06,52,9.90
2013,07,27,06,53,9.90
2013,07,27,06,54,9.90
2013,07,27,06,55,9.90
2013,07,27,06,56,9.90
2013,07,27,06,57,9.90
2013,07,27,06,58,9.90
2013,07,27,06,59,9.90
2013,07,27,07,00,9.90
2013,07,27,07,01,9.90
2013,07,27,07,02,9.90
2013,07,27,07,03,9.90
2013,07,27,07,04,9.90
2013,07,27,07,05,9.90
2013,07,27,07,06,9.90
2013,07,27,07,07,9.90
2013,07,27,07,08,9.90
2013,07,27,07,09,9.90
2013,07,27,07,10,10.00
2013,07,27,07,11,10.00
2013,07,27,07,12,10.10
2013,07,27,07,13,10.10
2013,07,27,07,14,10.20
2013,07,27,07,15,10.30
2013,07,27,07,16,10.30
2013,07,27,07,17,10.40
2013,07,27,07,18,10.50
2013,07,27,07,19,10.60
2013,07,27,07,20,10.70
2013,07,27,07,21,10.80
2013,07,27,07,22,10.90
2013,07,27,07,23,11.10
2013,07,27,07,24,11.10
2013,07,27,07,25,11.20
2013,07,27,07,26,11.30
2013,07,27,07,27,11.30
2013,07,27,07,28,11.40
2013,07,27,07,29,11.50
2013,07,27,07,30,11.60
2013,07,27,07,31,11.70
2013,07,27,07,32,11.80
2013,07,27,07,33,11.80
2013,07,27,07,34,11.90
2013,07,27,07,35,11.90
2013,07,27,07,36,12.00
2013,07,27,07,37,12.10
2013,07,27,07,38,12.10
2013,07,27,07,39,12.20
2013,07,27,07,40,12.20
2013,07,27,07,41,12.30
2013,07,27,07,42,12.30
2013,07,27,07,43,12.30
2013,07,27,07,44,12.40
2013,07,27,07,45,12.40
2013,07,27,07,46,12.40
2013,07,27,07,47,12.50
2013,07,27,07,48,12.50
2013,07,27,07,49,12.60
2013,07,27,07,50,12.60
2013,07,27,07,51,12.70
2013,07,27,07,52,12.80
2013,07,27,07,53,12.90
2013,07,27,07,54,12.90
2013,07,27,07,55,13.00
2013,07,27,07,56,13.00
2013,07,27,07,57,13.10
2013,07,27,07,58,13.10
2013,07,27,07,59,13.20
2013,07,27,08,00,13.20
2013,07,27,08,01,13.30
2013,07,27,08,02,13.40
2013,07,27,08,03,13.40
2013,07,27,08,04,13.50
2013,07,27,08,05,13.60
2013,07,27,08,06,13.70
2013,07,27,08,07,13.70
2013,07,27,08,08,13.80
2013,07,27,08,09,13.90
2013,07,27,08,10,14.00
2013,07,27,08,11,14.10
2013,07,27,08,12,14.20
2013,07,27,08,13,14.30
2013,07,27,08,14,14.40
2013,07,27,08,15,14.50
2013,07,27,08,16,14.60
2013,07,27,08,17,14.70
2013,07,27,08,18,14.80
2013,07,27,08,19,14.90
2013,07,27,08,20,15.00
2013,07,27,08,21,15.10
2013,07,27,08,22,15.20
2013,07,27,08,23,15.30
2013,07,27,08,24,15.30
2013,07,27,08,25,15.40
2013,07,27,08,26,15.40
2013,07,27,08,27,15.50
2013,07,27,08,28,15.50
2013,07,27,08,29,15.60
2013,07,27,08,30,15.60
2013,07,27,08,31,15.70
2013,07,27,08,32,15.70
2013,07,27,08,33,15.80
2013,07,27,08,34,15.80
2013,07,27,08,35,15.80
2013,07,27,08,36,15.80
2013,07,27,08,37,15.90
2013,07,27,08,38,15.90
2013,07,27,08,39,16.00
2013,07,27,08,40,15.90
2013,07,27,08,41,16.00
2013,07,27,08,42,16.00
2013,07,27,08,43,16.00
2013,07,27,08,44,16.10
2013,07,27,08,45,16.10
2013,07,27,08,46,16.10
2013,07,27,08,47,16.20
2013,07,27,08,48,16.30
2013,07,27,08,49,16.40
2013,07,27,08,50,16.50
2013,07,27,08,51,16.50
2013,07,27,08,52,16.60
2013,07,27,08,53,16.70
2013,07,27,08,54,16.80
2013,07,27,08,55,16.90
2013,07,27,08,56,16.90
2013,07,27,08,57,16.90
2013,07,27,08,58,16.90
2013,07,27,08,59,17.00
2013,07,27,09,00,17.00
2013,07,27,09,01,16.90
2013,07,27,09,02,16.90
2013,07,27,09,03,16.90
2013,07,27,09,04,16.90
2013,07,27,09,05,16.90
2013,07,27,09,06,16.90
2013,07,27,09,07,16.90
2013,07,27,09,08,17.00
2013,07,27,09,09,17.00
2013,07,27,09,10,17.10
2013,07,27,09,11,17.20
2013,07,27,09,12,17.30
2013,07,27,09,13,17.40
2013,07,27,09,14,17.40
2013,07,27,09,15,17.50
2013,07,27,09,16,17.50
2013,07,27,09,17,17.50
2013,07,27,09,18,17.60
2013,07,27,09,19,17.60
2013,07,27,09,20,17.70
2013,07,27,09,21,17.70
2013,07,27,09,22,17.70
2013,07,27,09,23,17.70
2013,07,27,09,24,17.80
2013,07,27,09,25,17.80
2013,07,27,09,26,17.90
2013,07,27,09,27,17.90
2013,07,27,09,28,17.90
2013,07,27,09,29,17.90
2013,07,27,09,30,17.90
2013,07,27,09,31,17.90
2013,07,27,09,32,18.00
2013,07,27,09,33,18.10
2013,07,27,09,34,18.10
2013,07,27,09,35,18.20
2013,07,27,09,36,18.20
2013,07,27,09,37,18.20
2013,07,27,09,38,18.20
2013,07,27,09,39,18.20
2013,07,27,09,40,18.20
2013,07,27,09,41,18.30
2013,07,27,09,42,18.40
2013,07,27,09,43,18.50
2013,07,27,09,44,18.50
2013,07,27,09,45,18.60
2013,07,27,09,46,18.70
2013,07,27,09,47,18.80
2013,07,27,09,48,18.80
2013,07,27,09,49,18.80
2013,07,27,09,50,18.80
2013,07,27,09,51,18.80
2013,07,27,09,52,18.80
2013,07,27,09,53,18.90
2013,07,27,09,54,18.80
2013,07,27,09,55,18.90
2013,07,27,09,56,19.00
2013,07,27,09,57,19.00
2013,07,27,09,58,19.00
2013,07,27,09,59,19.00
2013,07,27,10,00,19.00
2013,07,27,10,01,19.00
2013,07,27,10,02,19.00
2013,07,27,10,03,19.00
2013,07,27,10,04,19.10
2013,07,27,10,05,19.10
2013,07,27,10,06,19.10
2013,07,27,10,07,19.20
2013,07,27,10,08,19.30
2013,07,27,10,09,19.30
2013,07,27,10,10,19.40
2013,07,27,10,11,19.50
2013,07,27,10,12,19.50
2013,07,27,10,13,19.60
2013,07,27,10,14,19.60
2013,07,27,10,15,19.60
2013,07,27,10,16,19.60
2013,07,27,10,17,19.60
2013,07,27,10,18,19.70
2013,07,27,10,19,19.70
2013,07,27,10,20,19.70
2013,07,27,10,21,19.70
2013,07,27,10,22,19.70
2013,07,27,10,23,19.80
2013,07,27,10,24,19.80
2013,07,27,10,25,19.80
2013,07,27,10,26,19.70
2013,07,27,10,27,19.70
2013,07,27,10,28,19.70
2013,07,27,10,29,19.80
2013,07,27,10,30,19.90
2013,07,27,10,31,20.00
2013,07,27,10,32,20.00
2013,07,27,10,33,20.00
2013,07,27,10,34,20.00
2013,07,27,10,35,20.00
2013,07,27,10,36,20.10
2013,07,27,10,37,20.10
2013,07,27,10,38,20.20
2013,07,27,10,39,20.20
2013,07,27,10,40,20.20
2013,07,27,10,41,20.30
2013,07,27,10,42,20.30
2013,07,27,10,43,20.30
2013,07,27,10,44,20.30
2013,07,27,10,45,20.30
2013,07,27,10,46,20.40
2013,07,27,10,47,20.40
2013,07,27,10,48,20.50
2013,07,27,10,49,20.50
2013,07,27,10,50,20.60
2013,07,27,10,51,20.60
2013,07,27,10,52,20.60
2013,07,27,10,53,20.70
2013,07,27,10,54,20.80
2013,07,27,10,55,20.80
2013,07,27,10,56,20.90
2013,07,27,10,57,21.00
2013,07,27,10,58,21.10
2013,07,27,10,59,21.10
2013,07,27,11,00,21.10
2013,07,27,11,01,21.10
2013,07,27,11,02,21.20
2013,07,27,11,03,21.20
2013,07,27,11,04,21.30
2013,07,27,11,05,21.30
2013,07,27,11,06,21.30
2013,07,27,11,07,21.30
2013,07,27,11,08,21.30
2013,07,27,11,09,21.40
2013,07,27,11,10,21.40
2013,07,27,11,11,21.40
2013,07,27,11,12,21.50
2013,07,27,11,13,21.60
2013,07,27,11,14,21.70
2013,07,27,11,15,21.70
2013,07,27,11,16,21.70
2013,07,27,11,17,21.70
2013,07,27,11,18,21.80
2013,07,27,11,19,21.90
2013,07,27,11,20,21.90
2013,07,27,11,21,22.00
2013,07,27,11,22,22.10
2013,07,27,11,23,22.10
2013,07,27,11,24,22.20
2013,07,27,11,25,22.20
2013,07,27,11,26,22.20
2013,07,27,11,27,22.20
2013,07,27,11,28,22.20
2013,07,27,11,29,22.20
2013,07,27,11,30,22.30
2013,07,27,11,31,22.30
2013,07,27,11,32,22.40
2013,07,27,11,33,22.40
2013,07,27,11,34,22.50
2013,07,27,11,35,22.50
2013,07,27,11,36,22.60
2013,07,27,11,37,22.60
2013,07,27,11,38,22.60
2013,07,27,11,39,22.60
2013,07,27,11,40,22.60
2013,07,27,11,41,22.60
2013,07,27,11,42,22.50
2013,07,27,11,43,22.50
2013,07,27,11,44,22.50
2013,07,27,11,45,22.50
2013,07,27,11,46,22.50
2013,07,27,11,47,22.50
2013,07,27,11,48,22.50
2013,07,27,11,49,22.60
2013,07,27,11,50,22.60
2013,07,27,11,51,22.60
2013,07,27,11,52,22.70
2013,07,27,11,53,22.70
2013,07,27,11,54,22.70
2013,07,27,11,55,22.70
2013,07,27,11,56,22.80
2013,07,27,11,57,22.80
2013,07,27,11,58,22.80
2013,07,27,11,59,22.80
2013,07,27,12,00,22.90
2013,07,27,12,01,22.90
2013,07,27,12,02,22.90
2013,07,27,12,03,22.90
2013,07,27,12,04,22.90
2013,07,27,12,05,22.90
2013,07,27,12,06,22.90
2013,07,27,12,07,23.00
2013,07,27,12,08,23.00
2013,07,27,12,09,23.10
2013,07,27,12,10,23.30
2013,07,27,12,11,23.30
2013,07,27,12,12,23.40
2013,07,27,12,13,23.40
2013,07,27,12,14,23.40
2013,07,27,12,15,23.40
2013,07,27,12,16,23.40
2013,07,27,12,17,23.40
2013,07,27,12,18,23.40
2013,07,27,12,19,23.40
2013,07,27,12,20,23.30
2013,07,27,12,21,23.30
2013,07,27,12,22,23.40
2013,07,27,12,23,23.40
2013,07,27,12,24,23.40
2013,07,27,12,25,23.50
2013,07,27,12,26,23.60
2013,07,27,12,27,23.70
2013,07,27,12,28,23.80
2013,07,27,12,29,23.80
2013,07,27,12,30,23.80
2013,07,27,12,31,23.80
2013,07,27,12,32,23.80
2013,07,27,12,33,23.80
2013,07,27,12,34,23.90
2013,07,27,12,35,23.90
2013,07,27,12,36,24.00
2013,07,27,12,37,24.10
2013,07,27,12,38,24.10
2013,07,27,12,39,24.10
2013,07,27,12,40,24.10
2013,07,27,12,41,24.20
2013,07,27,12,42,24.20
2013,07,27,12,43,24.30
2013,07,27,12,44,24.30
2013,07,27,12,45,24.20
2013,07,27,12,46,24.20
2013,07,27,12,47,24.20
2013,07,27,12,48,24.20
2013,07,27,12,49,24.30
2013,07,27,12,50,24.40
2013,07,27,12,51,24.50
2013,07,27,12,52,24.60
2013,07,27,12,53,24.70
2013,07,27,12,54,24.60
2013,07,27,12,55,24.60
2013,07,27,12,56,24.60
2013,07,27,12,57,24.60
2013,07,27,12,58,24.70
2013,07,27,12,59,24.70
2013,07,27,13,00,24.70
2013,07,27,13,01,24.80
2013,07,27,13,02,24.90
2013,07,27,13,03,25.00
2013,07,27,13,04,25.00
2013,07,27,13,05,25.00
2013,07,27,13,06,25.10
2013,07,27,13,07,25.10
2013,07,27,13,08,25.20
2013,07,27,13,09,25.10
2013,07,27,13,10,25.10
2013,07,27,13,11,25.10
2013,07,27,13,12,25.10
2013,07,27,13,13,25.20
2013,07,27,13,14,25.20
2013,07,27,13,15,25.20
2013,07,27,13,16,25.20
2013,07,27,13,17,25.20
2013,07,27,13,18,25.20
2013,07,27,13,19,25.20
2013,07,27,13,20,25.20
2013,07,27,13,21,25.20
2013,07,27,13,22,25.20
2013,07,27,13,23,25.20
2013,07,27,13,24,25.20
2013,07,27,13,25,25.20
2013,07,27,13,26,25.30
2013,07,27,13,27,25.40
2013,07,27,13,28,25.50
2013,07,27,13,29,25.60
2013,07,27,13,30,25.70
2013,07,27,13,31,25.70
2013,07,27,13,32,25.80
2013,07,27,13,33,25.90
2013,07,27,13,34,25.90
2013,07,27,13,35,25.80
2013,07,27,13,36,25.60
2013,07,27,13,37,25.40
2013,07,27,13,38,25.30
2013,07,27,13,39,25.30
2013,07,27,13,40,25.30
2013,07,27,13,41,25.40
2013,07,27,13,42,25.60
2013,07,27,13,43,25.70
2013,07,27,13,44,25.80
2013,07,27,13,45,25.90
2013,07,27,13,46,26.00
2013,07,27,13,47,26.00
2013,07,27,13,48,26.20
2013,07,27,13,49,26.20
2013,07,27,13,50,26.30
2013,07,27,13,51,26.30
2013,07,27,13,52,26.40
2013,07,27,13,53,26.40
2013,07,27,13,54,26.40
2013,07,27,13,55,26.50
2013,07,27,13,56,26.50
2013,07,27,13,57,26.60
2013,07,27,13,58,26.60
2013,07,27,13,59,26.60
2013,07,27,14,00,26.60
2013,07,27,14,01,26.60
2013,07,27,14,02,26.70
2013,07,27,14,03,26.70
2013,07,27,14,04,26.80
2013,07,27,14,05,26.80
2013,07,27,14,06,26.80
2013,07,27,14,07,26.60
2013,07,27,14,08,26.50
2013,07,27,14,09,26.50
2013,07,27,14,10,26.50
2013,07,27,14,11,26.50
2013,07,27,14,12,26.40
2013,07,27,14,13,26.40
2013,07,27,14,14,26.30
2013,07,27,14,15,26.30
2013,07,27,14,16,26.20
2013,07,27,14,17,26.30
2013,07,27,14,18,26.30
2013,07,27,14,19,26.40
2013,07,27,14,20,26.40
2013,07,27,14,21,26.40
2013,07,27,14,22,26.40
2013,07,27,14,23,26.30
2013,07,27,14,24,26.30
2013,07,27,14,25,26.30
2013,07,27,14,26,26.30
2013,07,27,14,27,26.30
2013,07,27,14,28,26.30
2013,07,27,14,29,26.30
2013,07,27,14,30,26.40
2013,07,27,14,31,26.40
2013,07,27,14,32,26.50
2013,07,27,14,33,26.60
2013,07,27,14,34,26.60
2013,07,27,14,35,26.50
2013,07,27,14,36,26.50
2013,07,27,14,37,26.50
2013,07,27,14,38,26.50
2013,07,27,14,39,26.50
2013,07,27,14,40,26.60
2013,07,27,14,41,26.60
2013,07,27,14,42,26.60
2013,07,27,14,43,26.60
2013,07,27,14,44,26.70
2013,07,27,14,45,26.70
2013,07,27,14,46,26.70
2013,07,27,14,47,26.80
2013,07,27,14,48,26.80
2013,07,27,14,49,26.80
2013,07,27,14,50,26.80
2013,07,27,14,51,26.80
2013,07,27,14,52,26.80
2013,07,27,14,53,26.80
2013,07,27,14,54,26.80
2013,07,27,14,55,26.80
2013,07,27,14,56,26.90
2013,07,27,14,57,26.90
2013,07,27,14,58,26.90
2013,07,27,14,59,26.90
2013,07,27,15,00,26.90
2013,07,27,15,01,27.00
2013,07,27,15,02,27.00
2013,07,27,15,03,27.10
2013,07,27,15,04,27.00
2013,07,27,15,05,26.90
2013,07,27,15,06,26.90
2013,07,27,15,07,26.90
2013,07,27,15,08,27.00
2013,07,27,15,09,27.00
2013,07,27,15,10,26.90
2013,07,27,15,11,27.00
2013,07,27,15,12,27.10
2013,07,27,15,13,27.10
2013,07,27,15,14,27.10
2013,07,27,15,15,27.10
2013,07,27,15,16,27.10
2013,07,27,15,17,27.10
2013,07,27,15,18,27.10
2013,07,27,15,19,27.00
2013,07,27,15,20,26.90
2013,07,27,15,21,26.80
2013,07,27,15,22,26.80
2013,07,27,15,23,26.80
2013,07,27,15,24,26.90
2013,07,27,15,25,26.90
2013,07,27,15,26,27.00
2013,07,27,15,27,27.10
2013,07,27,15,28,27.10
2013,07,27,15,29,27.10
2013,07,27,15,30,27.00
2013,07,27,15,31,27.00
2013,07,27,15,32,27.10
2013,07,27,15,33,27.10
2013,07,27,15,34,27.20
2013,07,27,15,35,27.20
2013,07,27,15,36,27.30
2013,07,27,15,37,27.30
2013,07,27,15,38,27.20
2013,07,27,15,39,27.20
2013,07,27,15,40,27.10
2013,07,27,15,41,27.00
2013,07,27,15,42,27.00
2013,07,27,15,43,27.00
2013,07,27,15,44,27.00
2013,07,27,15,45,27.10
2013,07,27,15,46,27.10
2013,07,27,15,47,27.10
2013,07,27,15,48,27.10
2013,07,27,15,49,27.10
2013,07,27,15,50,27.10
2013,07,27,15,51,27.10
2013,07,27,15,52,27.10
2013,07,27,15,53,27.10
2013,07,27,15,54,27.20
2013,07,27,15,55,27.20
2013,07,27,15,56,27.20
2013,07,27,15,57,27.20
2013,07,27,15,58,27.10
2013,07,27,15,59,27.10
2013,07,27,16,00,27.10
2013,07,27,16,01,26.90
2013,07,27,16,02,26.80
2013,07,27,16,03,26.70
2013,07,27,16,04,26.60
2013,07,27,16,05,26.60
2013,07,27,16,06,26.60
2013,07,27,16,07,26.60
2013,07,27,16,08,26.60
2013,07,27,16,09,26.70
2013,07,27,16,10,26.70
2013,07,27,16,11,26.80
2013,07,27,16,12,26.70
2013,07,27,16,13,26.70
2013,07,27,16,14,26.70
2013,07,27,16,15,26.70
2013,07,27,16,16,26.70
2013,07,27,16,17,26.80
2013,07,27,16,18,26.90
2013,07,27,16,19,26.90
2013,07,27,16,20,27.00
2013,07,27,16,21,27.10
2013,07,27,16,22,27.10
2013,07,27,16,23,27.10
2013,07,27,16,24,27.10
2013,07,27,16,25,27.10
2013,07,27,16,26,27.20
2013,07,27,16,27,27.20
2013,07,27,16,28,27.10
2013,07,27,16,29,27.00
2013,07,27,16,30,27.00
2013,07,27,16,31,26.90
2013,07,27,16,32,26.90
2013,07,27,16,33,27.00
2013,07,27,16,34,27.00
2013,07,27,16,35,27.10
2013,07,27,16,36,27.20
2013,07,27,16,37,27.30
2013,07,27,16,38,27.30
2013,07,27,16,39,27.20
2013,07,27,16,40,27.20
2013,07,27,16,41,27.20
2013,07,27,16,42,27.20
2013,07,27,16,43,27.20
2013,07,27,16,44,27.10
2013,07,27,16,45,27.10
2013,07,27,16,46,27.00
2013,07,27,16,47,26.90
2013,07,27,16,48,26.90
2013,07,27,16,49,26.80
2013,07,27,16,50,26.70
2013,07,27,16,51,26.60
2013,07,27,16,52,26.60
2013,07,27,16,53,26.50
2013,07,27,16,54,26.50
2013,07,27,16,55,26.50
2013,07,27,16,56,26.60
2013,07,27,16,57,26.60
2013,07,27,16,58,26.70
2013,07,27,16,59,26.80
2013,07,27,17,00,26.80
2013,07,27,17,01,26.90
2013,07,27,17,02,26.90
2013,07,27,17,03,26.90
2013,07,27,17,04,26.90
2013,07,27,17,05,26.90
2013,07,27,17,06,26.90
2013,07,27,17,07,26.90
2013,07,27,17,08,26.90
2013,07,27,17,09,26.90
2013,07,27,17,10,26.80
2013,07,27,17,11,26.70
2013,07,27,17,12,26.70
2013,07,27,17,13,26.70
2013,07,27,17,14,26.60
2013,07,27,17,15,26.60
2013,07,27,17,16,26.70
2013,07,27,17,17,26.70
2013,07,27,17,18,26.80
2013,07,27,17,19,26.90
2013,07,27,17,20,26.90